Dewpoint
16 16 17 16 15 14 13 13 12 13 12 13 11 8 11 13 19 22 23 23 23 26 26 25 25 27 28 29 30 30 29 33 38 42 42 40 41 38 34 35 35 37 36 36
20 19 17 14 14 14 13 13 12 9 8 10 12 11 13 21 22 22 23 26 26 25 26 26 26 27 28 28 29 30 28 28 35 41 42 41 42 43 38 35 35 35 35 35
18 16 16 15 13 10 11 11 11 9 12 15 21 25 24 25 24 22 26 26 24 25 25 25 25 26 27 27 28 29 28 28 32 39 40 39 41 43 43 41 35 34 33 33
18 18 13 15 14 14 13 13 14 15 19 27 28 28 26 26 24 24 25 24 24 24 25 25 26 27 27 27 28 29 29 29 31 38 37 37 37 41 43 44 36 35 32 31
17 16 16 15 14 15 13 14 17 21 25 25 25 27 26 26 29 30 29 27 25 24 24 25 26 27 28 28 29 29 29 30 37 37 35 36 35 39 41 44 42 34 31 30
16 15 14 13 17 17 20 15 19 21 22 24 28 26 27 29 32 32 33 28 25 25 25 25 27 28 28 29 28 28 29 37 37 37 36 36 34 33 40 43 44 35 31 30
18 17 18 18 16 17 11 14 20 20 24 28 29 31 31 32 33 33 30 26 27 26 25 25 27 28 28 29 29 29 30 36 36 36 36 36 33 29 40 43 44 37 30 30
16 15 13 16 16 14 17 20 21 29 31 31 32 32 31 32 32 31 30 29 29 27 26 26 28 28 28 29 30 30 31 34 36 36 36 35 28 30 39 43 44 40 29 29
14 15 17 18 18 20 20 26 29 30 30 30 30 30 31 31 30 30 30 31 29 28 26 26 28 29 29 30 30 30 29 32 36 37 36 33 27 30 36 42 43 40 28 28
18 18 17 19 19 21 24 28 31 31 31 31 32 31 30 30 30 29 28 30 28 26 26 27 29 30 30 30 31 30 30 33 37 38 36 31 34 33 40 41 42 39 28 28
18 20 21 20 21 30 31 31 31 31 31 28 29 28 27 26 25 24 25 26 26 26 27 28 29 30 31 31 31 31 31 35 38 36 32 36 35 39 41 43 42 37 28 28
19 18 20 25 29 30 29 30 29 28 27 25 23 23 24 24 25 24 25 26 27 27 27 27 27 29 28 30 31 32 33 37 37 36 34 36 38 38 43 43 43 39 30 28
20 24 28 31 31 29 28 26 24 23 23 24 24 25 26 26 26 28 29 29 29 30 30 30 31 27 28 30 33 33 37 39 37 36 36 37 39 39 40 41 43 34 33 32
23 29 30 28 25 22 22 23 25 25 26 27 28 28 28 28 29 30 31 31 32 32 32 31 29 28 29 31 32 33 39 38 37 38 37 38 40 40 40 38 37 37 38 38
28 26 24 22 22 23 24 27 27 28 29 28 28 28 28 30 32 32 34 34 33 32 32 30 30 30 31 32 32 34 39 38 38 37 37 38 40 39 37 36 35 36 38 39
25 23 22 23 24 26 27 27 27 29 27 28 28 28 31 33 33 33 34 34 33 33 34 34 33 32 32 33 34 38 38 37 36 36 39 39 38 37 36 37 37 36 37 38
22 22 24 25 26 28 28 27 28 27 28 28 30 32 33 32 32 32 33 35 34 34 34 33 33 33 34 35 36 37 37 37 37 39 39 38 38 37 37 36 37 37 37 38
24 25 26 27 27 29 29 28 27 27 28 30 32 33 32 31 31 32 35 35 35 35 35 35 36 36 38 39 38 39 37 36 37 37 38 38 37 37 37 36 36 36 37 37
26 27 27 27 28 28 28 27 27 29 28 29 32 32 32 32 32 34 36 36 35 34 36 37 38 38 37 39 39 38 37 36 37 38 38 37 36 35 35 35 36 35 35 34
27 27 28 27 28 27 27 27 27 28 28 29 32 32 31 32 32 33 35 34 35 36 37 37 38 38 38 38 38 39 37 36 36 36 36 36 37 37 37 35 35 35 34 33
27 27 28 28 29 28 28 28 27 27 28 31 31 31 32 32 33 34 33 33 36 38 38 38 38 38 38 38 38 38 38 38 37 36 36 35 35 34 33 32 31 31 30 31
27 28 28 29 28 28 27 27 28 28 29 30 31 32 32 32 32 33 36 35 37 38 38 38 38 38 38 37 36 36 36 35 34 34 33 33 32 31 31 30 30 30 30 30
27 28 28 29 29 29 27 28 29 31 30 30 31 31 32 33 33 31 31 37 37 38 37 38 38 38 37 36 36 35 35 34 33 33 33 33 33 33 33 33 33 32 32 32
27 28 29 29 28 28 27 28 30 30 30 29 30 30 30 32 32 35 36 37 38 38 38 38 38 37 37 36 35 35 35 34 33 34 33 32 32 31 30 30 31 32 31 31
28 29 30 29 29 28 29 28 30 29 29 28 28 28 29 31 32 32 33 33 35 36 36 38 38 37 36 35 33 33 32 32 32 32 32 31 31 30 29 29 29 30 30 31
28 29 31 31 30 31 31 29 29 30 28 27 27 27 27 27 29 30 31 32 33 34 35 36 37 36 36 35 34 33 33 32 32 32 32 31 31 30 29 29 30 31 32 32
30 31 30 29 30 29 30 29 28 29 28 26 26 26 25 26 25 26 27 29 31 32 33 34 35 35 35 35 35 35 34 34 34 33 31 31 30 30 28 28 29 31 33 34
Wind_Speed
15 20 21 25 26 24 24 26 29 37 36 35 27 28 24 22 19 20 26 30 27 20 24 25 22 19 21 23 23 22 26 22 18 13 12 20 23 26 25 23 19 22 25 25
17 22 21 24 25 26 26 27 29 28 32 28 22 25 24 20 21 22 26 24 27 26 27 27 25 21 22 25 24 25 26 26 23 16 10 12 20 23 21 29 19 17 25 25
6 9 23 20 4 8 17 22 19 26 28 26 21 22 24 25 25 26 21 27 24 26 27 25 27 26 26 27 27 22 26 27 28 19 14 13 13 16 20 28 19 16 24 25
14 18 5 6 21 20 23 26 24 26 23 18 20 23 26 28 24 23 22 23 27 26 26 28 29 24 26 26 25 21 24 28 30 14 16 19 16 15 18 24 25 17 23 24
5 10 24 25 7 20 26 24 17 15 17 24 26 24 27 23 19 25 28 27 24 26 30 29 30 26 25 29 23 22 28 29 19 20 24 22 20 16 15 20 27 18 20 24
10 11 9 5 26 16 11 27 10 24 31 30 26 28 29 29 28 29 29 26 24 27 29 28 28 25 27 25 25 25 27 19 21 23 26 27 24 19 18 19 23 19 18 24
19 19 17 16 11 20 15 24 32 32 25 26 25 20 29 30 33 30 29 27 29 29 28 30 26 25 25 28 24 21 26 22 22 22 29 30 26 20 18 19 18 23 19 22
11 18 20 1 25 22 29 30 30 22 20 25 29 29 29 28 28 29 31 34 34 30 29 31 25 24 26 25 26 26 23 22 23 26 28 28 25 19 17 15 18 24 20 21
8 12 21 27 27 26 28 20 21 25 29 26 28 30 29 30 32 33 34 34 33 31 29 35 24 22 24 27 26 27 22 24 24 27 28 29 27 18 16 19 19 22 22 22
20 12 19 25 30 22 23 22 25 27 28 28 31 33 37 35 35 35 35 33 31 29 30 31 24 23 20 25 26 27 27 25 24 26 29 28 22 16 20 20 22 21 21 22
20 25 28 20 21 19 24 25 27 27 28 32 35 37 35 35 34 33 34 32 29 29 28 32 26 26 23 24 25 29 26 23 22 21 23 18 12 13 18 18 15 21 21 24
21 18 18 20 20 21 25 26 30 33 33 30 30 35 35 34 31 34 34 32 30 31 31 29 30 25 26 26 28 24 25 20 18 19 18 14 14 5 10 17 19 17 25 24
18 16 14 19 20 24 28 28 26 32 32 35 33 32 34 35 33 37 35 34 33 31 29 31 24 29 27 25 22 23 25 15 17 18 15 12 16 10 13 5 14 29 29 28
19 13 17 18 25 23 26 29 29 28 27 28 31 33 34 35 36 35 35 33 32 31 28 26 27 26 23 22 22 24 18 18 15 13 9 11 8 13 11 15 20 22 29 29
8 12 17 22 24 25 23 28 30 30 29 31 31 32 34 37 38 38 36 33 31 29 27 25 24 24 21 20 20 25 12 12 7 10 9 11 9 12 16 20 20 24 24 25
11 15 17 19 21 22 25 27 26 28 30 31 33 36 37 37 37 37 34 29 25 22 21 21 22 22 19 18 18 13 7 7 4 10 7 12 20 19 21 20 20 19 19 20
13 16 17 18 19 22 23 23 24 27 28 30 34 35 36 36 34 33 31 24 19 19 20 20 19 18 19 18 16 1 4 5 9 16 15 16 19 19 19 18 16 15 15 15
9 11 12 16 19 20 22 22 23 25 26 29 31 33 33 33 32 33 23 21 17 16 15 15 17 18 12 8 12 7 9 8 10 18 19 20 20 19 20 20 18 17 15 16
6 9 13 15 16 17 19 20 21 23 25 26 29 32 32 31 30 30 25 23 22 17 14 10 15 15 13 12 12 13 12 11 13 17 17 19 18 16 17 17 18 15 12 11
6 8 12 15 15 16 18 18 21 21 22 24 26 30 31 31 30 29 23 19 23 22 20 15 14 16 16 17 16 12 15 12 13 14 14 14 14 15 15 16 16 14 12 9
7 8 11 12 14 14 15 16 18 20 21 21 24 27 29 28 28 27 24 19 22 20 20 21 17 17 17 18 19 17 16 14 13 15 15 14 15 15 14 14 13 14 13 13
6 8 10 11 13 13 15 15 16 17 18 20 20 23 25 26 26 25 22 22 20 23 17 17 17 21 19 20 16 17 17 16 15 15 15 14 14 14 14 13 13 13 12 11
7 9 9 9 9 12 13 14 17 17 16 17 17 19 20 19 18 21 22 22 20 23 18 18 22 23 21 16 15 16 17 16 16 15 15 16 16 15 15 14 13 13 13 12
8 9 8 9 9 10 11 14 16 14 14 13 13 14 15 18 17 17 18 20 21 20 17 18 19 20 19 16 14 13 13 12 12 13 13 14 12 12 12 11 11 11 11 12
8 9 7 9 8 10 11 12 13 13 14 12 14 12 14 11 11 15 14 14 19 18 15 18 18 17 13 11 11 12 11 10 10 11 11 10 10 10 10 8 7 8 9 9
9 8 7 9 6 7 9 9 11 12 13 12 12 12 12 12 11 12 14 16 14 15 14 14 11 10 9 11 11 9 9 8 9 10 9 8 10 9 8 6 7 7 7 8
8 7 7 5 5 7 8 8 10 11 12 9 13 12 12 11 12 12 13 13 13 13 11 11 12 12 10 10 10 8 7 8 10 7 7 9 9 7 6 6 4 5 7 7
Wind_Direction
282 296 300 293 289 283 276 276 273 287 281 283 294 316 320 321 340 340 333 318 314 325 318 321 317 317 320 315 311 311 307 303 298 296 313 312 308 311 307 280 272 194 178 181
292 282 279 290 287 284 277 275 275 289 294 305 310 308 314 340 333 327 317 326 322 326 322 319 316 319 315 307 307 307 302 305 296 284 282 313 302 310 307 294 266 200 179 180
270 317 311 292 294 339 313 304 313 310 312 321 336 347 335 328 324 314 324 309 316 319 311 312 315 315 310 307 300 294 300 301 302 293 289 292 285 297 304 296 262 239 181 182
288 308 264 252 324 329 324 315 311 307 321 344 325 316 314 310 305 305 314 317 316 309 311 310 307 308 309 301 304 299 302 301 294 305 313 309 289 270 287 287 277 261 186 178
269 283 283 280 283 334 309 306 308 308 321 315 312 315 304 306 312 315 311 309 302 313 308 306 305 307 314 303 299 309 298 294 311 315 308 304 286 254 256 271 281 256 185 168
265 281 274 265 321 325 336 297 341 331 317 315 320 307 300 311 306 302 299 295 309 305 304 302 303 305 300 307 305 296 302 312 308 310 310 300 287 275 233 251 264 260 180 165
253 258 265 273 356 337 306 296 316 310 303 312 302 293 300 301 300 295 291 309 307 304 299 301 303 303 304 300 299 307 300 305 303 304 302 294 287 263 228 232 251 265 177 164
257 265 271 305 327 317 300 308 305 323 324 309 299 297 298 299 299 302 304 305 301 297 298 299 298 297 296 301 304 303 297 301 296 297 300 291 284 252 221 210 237 257 171 159
241 248 285 307 301 305 302 317 324 319 313 304 301 300 302 302 298 295 293 296 295 288 299 295 296 291 299 300 305 296 302 302 296 296 300 294 290 246 217 203 216 239 171 162
295 265 288 299 294 298 316 318 321 313 303 309 304 303 299 298 300 295 295 293 290 300 298 294 298 304 297 306 305 307 301 303 295 298 297 296 285 218 194 196 205 221 172 160
267 281 284 289 313 341 331 321 311 306 305 303 302 302 303 304 305 305 303 301 302 299 298 295 303 301 309 309 314 301 300 300 290 294 295 306 286 174 184 190 208 205 167 155
273 304 313 320 331 330 315 315 311 309 313 315 311 309 310 305 304 303 299 299 298 296 291 291 295 295 307 302 296 296 301 288 285 292 293 296 303 179 142 171 225 215 153 152
306 316 329 320 316 314 304 311 326 325 318 313 313 310 307 305 303 301 301 296 294 292 294 294 293 301 301 295 295 301 297 278 285 284 285 295 279 187 173 184 223 145 141 139
287 351 325 312 309 328 330 324 321 318 316 317 315 314 310 306 307 305 300 297 294 291 289 290 290 289 290 287 290 305 273 281 286 271 264 274 245 148 159 154 145 122 122 127
342 318 301 318 327 327 329 327 327 324 322 320 316 313 317 313 307 303 298 294 294 292 286 281 284 286 288 288 294 298 291 292 263 267 254 243 165 131 131 121 118 112 110 111
316 316 323 329 324 327 328 323 320 321 320 318 321 322 317 313 309 308 305 299 293 292 293 286 285 284 289 293 294 286 323 330 266 257 227 127 124 123 123 114 109 111 117 125
324 321 329 323 325 320 318 319 319 315 320 324 323 320 319 319 317 318 317 315 303 298 297 295 295 298 293 285 291 201 90 65 43 77 100 112 127 126 122 114 106 112 121 135
312 327 328 317 316 318 318 317 320 323 323 325 324 327 328 329 326 327 330 330 318 307 303 309 307 298 315 281 145 111 110 75 83 88 87 91 96 106 114 120 129 136 142 145
330 320 313 311 315 315 313 321 323 321 329 332 332 334 333 333 335 335 342 338 332 316 315 360 46 54 56 57 128 107 101 94 78 89 92 91 90 95 114 123 119 116 117 112
305 306 308 310 317 320 324 325 327 327 329 339 338 340 341 341 343 344 347 6 18 33 55 58 54 55 64 68 74 95 105 96 95 96 95 95 98 98 97 99 114 127 137 135
285 301 302 311 313 321 326 325 326 329 332 335 341 342 344 345 349 352 6 11 24 37 42 47 51 52 55 58 55 62 67 74 88 92 93 97 97 101 101 102 95 96 96 95
284 292 299 307 315 320 326 324 332 327 330 334 343 345 347 351 354 1 15 20 21 35 41 46 55 60 59 56 55 53 55 55 57 64 71 76 82 85 85 92 95 94 100 103
275 284 294 296 306 311 319 331 316 320 328 333 340 346 349 348 357 2 4 13 28 33 38 47 51 52 52 46 48 51 50 52 54 56 58 62 66 70 72 77 83 85 82 81
273 282 283 292 296 308 320 319 315 322 321 338 339 348 348 353 356 4 359 1 26 27 35 42 47 51 51 46 46 55 59 58 66 70 70 72 76 75 76 77 85 90 87 92
271 274 278 294 301 308 312 318 316 319 328 341 343 351 347 354 359 350 356 4 13 24 26 32 42 46 50 55 49 45 54 56 67 78 81 80 82 86 92 101 105 106 113 117
261 267 269 281 280 301 307 313 312 316 325 337 340 341 346 350 357 4 358 2 9 19 21 14 29 56 45 43 61 51 45 57 75 91 95 101 95 84 79 86 89 83 117 129
251 256 266 288 295 301 300 311 311 307 321 341 332 332 345 347 352 4 3 360 4 5 14 24 20 30 37 35 29 35 50 67 58 76 95 101 106 102 112 110 101 107 109 124